[[{"header":{"parameterUnit":"m.s-1","parameterCategory":1,"la1":30.2991,"la2":30.254,"lo1":-89.0895,"lo2":-89.0444,"dy":0.0017,"dx":0.0017,"nx":28,"ny":28,"refTime":"2024-07-24T03:00:00:Z","depth":0,"parameterNumber":2,"parameterNumberName":"U-component_of_WINDS"},"data":[0,0,0,0,0,0,0,0,0,0,0,0,0,0,0,0,0,0,0,0,0,0,0,0,0,0,0,0,0,0,0,0,0,0,0,0,0,0,0,0,0,0,0,0,0,0,0,0,0,0,0,0,0,0,0,0,0,0,-0.5016,-0.5016,0,-0.4974,-0.4973,-0.4973,-0.4943,-0.4942,-0.4942,-0.4942,-0.4898,-0.4897,-0.4896,0,0,0,0,0,0,0,0,0,0,0,0,0,-0.5071,-0.507,-0.5016,-0.5016,-0.5015,-0.4974,-0.4973,-0.4973,-0.4943,-0.4942,-0.4942,-0.4942,-0.4898,-0.4897,-0.4896,0,0,0,0,0,0,0,0,0,0,0,0,0,-0.504,-0.507,-0.5016,-0.4995,-0.4993,-0.4974,-0.4973,-0.4973,-0.4943,-0.4942,-0.4942,-0.4942,-0.4899,-0.4897,-0.4896,-0.4895,0,0,-0.4892,-0.4891,0,0,0,0,0,0,0,0,-0.5041,-0.5038,-0.4999,-0.4997,-0.4994,-0.4963,-0.4977,-0.4947,-0.4943,-0.4962,-0.4942,-0.4941,-0.492,-0.4917,-0.491,-0.4893,-0.4891,-0.4892,-0.4891,-0.489,-0.489,0,0,0,0,0,0,0,-0.5044,-0.5039,-0.4999,-0.4998,-0.4995,-0.4988,-0.4983,-0.4971,-0.4944,-0.496,-0.4958,-0.4953,-0.4919,-0.4911,-0.4909,-0.489,-0.4892,-0.489,-0.489,-0.4889,-0.4871,-0.4871,0,0,0,0,0,0,-0.5049,-0.5041,-0.5001,-0.4998,-0.5017,-0.4987,-0.4982,-0.4973,-0.4944,-0.4939,-0.4954,-0.4952,-0.4914,-0.491,-0.4907,-0.4904,-0.489,-0.4889,-0.4888,-0.487,-0.4871,-0.4871,0,0,0,0,0,0,-0.505,-0.5046,-0.5003,-0.5019,-0.5013,-0.4987,-0.4978,-0.4973,-0.4965,-0.4939,-0.4934,-0.4951,-0.4913,-0.4909,-0.4898,-0.4902,-0.4888,-0.4887,-0.487,-0.487,-0.4871,-0.4897,0,0,0,0,0,0,-0.5052,-0.5046,-0.5046,-0.5019,-0.5012,-0.4995,-0.4978,-0.4972,-0.4963,-0.4961,-0.4935,-0.493,-0.4913,-0.49,-0.4897,-0.49,-0.4886,-0.4869,-0.487,-0.4871,-0.4896,-0.4899,-0.4901,0,0,0,0,0,-0.5054,-0.5055,-0.5046,-0.5041,-0.5011,-0.4995,-0.4991,-0.4971,-0.4963,-0.4962,-0.4945,-0.4931,-0.4902,-0.49,-0.4895,-0.4898,-0.4869,-0.487,-0.4871,-0.4895,-0.4898,-0.4901,0,0,0,0,0,0,-0.5082,-0.5051,-0.5041,-0.5033,-0.5017,-0.499,-0.4988,-0.4975,-0.4961,-0.4959,-0.4934,-0.4929,-0.4921,-0.4908,-0.4906,-0.4895,-0.4884,-0.4884,-0.4904,-0.4907,-0.4909,-0.4912,-0.4885,0,0,0,0,0,-0.5087,-0.5077,-0.505,-0.5046,-0.5038,-0.5015,-0.5007,-0.4993,-0.4975,-0.4968,-0.4951,-0.4934,-0.4921,-0.4913,-0.49,-0.4894,-0.4888,-0.4894,-0.4896,-0.4898,-0.4899,-0.4895,-0.4897,-0.4874,-0.4874,-0.4874,0,0,-0.5098,-0.5079,-0.5074,-0.5051,-0.5037,-0.5027,-0.5009,-0.4999,-0.4992,-0.4967,-0.4956,-0.4942,-0.4922,-0.4914,-0.491,-0.4903,-0.4904,-0.4899,-0.4901,-0.49,-0.4896,-0.4898,-0.49,-0.4874,-0.4874,-0.4874,0,0,-0.5112,-0.5097,-0.5092,-0.5078,-0.5057,-0.5042,-0.5041,-0.5016,-0.5006,-0.4995,-0.4976,-0.4966,-0.4945,-0.4931,-0.4922,-0.4931,-0.4918,-0.4928,-0.4941,-0.4937,-0.4939,-0.4941,-0.4944,-0.4946,-0.4928,-0.4928,-0.4928,0,-0.5127,-0.5112,-0.5091,-0.5082,-0.5072,-0.505,-0.5044,-0.5032,-0.5008,-0.5002,-0.4995,-0.4968,-0.4953,-0.4941,-0.4944,-0.4937,-0.4935,-0.493,-0.4941,-0.4942,-0.4943,-0.4946,-0.4948,-0.493,-0.4929,-0.4929,-0.4929,0,-0.5132,-0.5122,-0.512,-0.5098,-0.5088,-0.5081,-0.5059,-0.5051,-0.5038,-0.5023,-0.5012,-0.4993,-0.4976,-0.4972,-0.4959,-0.4959,-0.4956,-0.4945,-0.4933,-0.4947,-0.495,-0.4951,-0.4931,-0.4931,-0.4931,-0.493,0,0,-0.5162,-0.5129,-0.5128,-0.5118,-0.5094,-0.5085,-0.5077,-0.5061,-0.5055,-0.5039,-0.5032,-0.5014,-0.5005,-0.4994,-0.4979,-0.4976,-0.4986,-0.4966,-0.4965,-0.497,-0.4985,-0.4993,-0.4995,-0.4976,-0.4977,-0.4977,-0.4986,0,-0.5173,-0.5158,-0.5139,-0.513,-0.512,-0.5099,-0.5092,-0.5076,-0.5062,-0.5052,-0.5036,-0.5024,-0.5012,-0.5006,-0.5002,-0.4985,-0.4988,-0.4984,-0.497,-0.4969,-0.4975,-0.4996,-0.5004,-0.5014,-0.4987,-0.4987,-0.4987,0,-0.5183,-0.5169,-0.5159,-0.5136,-0.5131,-0.5125,-0.5109,-0.5099,-0.5081,-0.5071,-0.5059,-0.5044,-0.5034,-0.5024,-0.5011,-0.5009,-0.5002,-0.4993,-0.4993,-0.499,-0.4979,-0.4994,-0.5017,-0.5019,-0.4989,-0.4989,-0.4989,0,-0.5206,-0.5184,-0.5176,-0.5168,-0.5141,-0.5137,-0.5126,-0.5107,-0.5098,-0.5084,-0.5078,-0.5063,-0.5054,-0.5043,-0.5023,-0.5018,-0.5013,-0.5,-0.5004,-0.5005,-0.5004,-0.5004,-0.5026,-0.4999,-0.4999,-0.4999,-0.4999,0,-0.522,-0.5215,-0.5186,-0.5181,-0.5175,-0.5153,-0.5148,-0.5134,-0.5118,-0.511,-0.5091,-0.5083,-0.5058,-0.5048,-0.5033,-0.5025,-0.5021,-0.5013,-0.5009,-0.5015,-0.5016,-0.501,-0.5008,-0.5,-0.5,-0.5,-0.4999,0,-0.5245,-0.5225,-0.5215,-0.519,-0.5184,-0.518,-0.5159,-0.5153,-0.5138,-0.5128,-0.5125,-0.5101,-0.5088,-0.5068,-0.5049,-0.5039,-0.5033,-0.5027,-0.504,-0.5037,-0.5042,-0.5042,-0.5061,-0.5062,-0.5035,-0.5035,-0.5035,0,-0.5255,-0.525,-0.5225,-0.5219,-0.5208,-0.5197,-0.5189,-0.5167,-0.5159,-0.5138,-0.5135,-0.5121,-0.5108,-0.5089,-0.507,-0.5055,-0.5048,-0.5056,-0.5046,-0.5052,-0.5048,-0.5049,-0.5049,-0.5058,-0.5058,-0.5059,-0.5059,0,-0.5275,-0.5265,-0.5254,-0.5239,-0.5229,-0.5216,-0.5202,-0.5197,-0.5173,-0.5164,-0.5151,-0.5141,-0.5122,-0.5108,-0.5091,-0.5079,-0.5065,-0.5062,-0.5062,-0.5068,-0.5076,-0.5072,-0.5046,-0.5062,-0.5062,-0.5061,-0.5061,-0.5061,-0.5292,-0.5288,-0.527,-0.5257,-0.5245,-0.5232,-0.5226,-0.521,-0.5199,-0.5182,-0.517,-0.5157,-0.514,-0.5116,-0.5104,-0.5094,-0.5088,-0.5088,-0.5088,-0.5089,-0.5091,-0.5078,-0.5091,-0.5091,-0.5091,-0.5091,-0.5091,0,-0.5312,-0.5299,-0.5288,-0.5269,-0.526,-0.5247,-0.5231,-0.5224,-0.5214,-0.5198,-0.5186,-0.5171,-0.5158,-0.5138,-0.5124,-0.5119,-0.5113,-0.5116,-0.5116,-0.5114,-0.5097,-0.5099,-0.5122,-0.5122,-0.5122,-0.5122,-0.5122,-0.5122,-0.5321,-0.5312,-0.5301,-0.5286,-0.5274,-0.5262,-0.5254,-0.5242,-0.523,-0.5214,-0.5203,-0.519,-0.5173,-0.5157,-0.5144,-0.5139,-0.5134,-0.514,-0.5133,-0.5118,-0.5115,-0.5112,-0.5113,-0.5139,-0.5139,-0.515,-0.515,-0.515]},{"header":{"parameterUnit":"m.s-1","parameterCategory":1,"la1":30.2991,"la2":30.254,"lo1":-89.0895,"lo2":-89.0444,"dy":0.0017,"dx":0.0017,"nx":28,"ny":28,"refTime":"2024-07-24T03:00:00:Z","depth":0,"parameterNumber":3,"parameterNumberName":"V-component_of_WINDS"},"data":[0,0,0,0,0,0,0,0,0,0,0,0,0,0,0,0,0,0,0,0,0,0,0,0,0,0,0,0,0,0,0,0,0,0,0,0,0,0,0,0,0,0,0,0,0,0,0,0,0,0,0,0,0,0,0,0,0,0,1.0169,1.0168,0,1.0083,1.0082,1.0081,1.0045,1.0045,1.0045,1.0045,0.9956,0.9953,0.9951,0,0,0,0,0,0,0,0,0,0,0,0,0,1.0299,1.0297,1.0169,1.0168,1.0167,1.0083,1.0082,1.0081,1.0045,1.0045,1.0045,1.0045,0.9956,0.9953,0.995,0,0,0,0,0,0,0,0,0,0,0,0,0,1.0231,1.0297,1.0169,1.0139,1.0135,1.0084,1.0082,1.0081,1.0045,1.0045,1.0045,1.0046,0.9957,0.9954,0.995,0.9921,0,0,0.9938,0.9937,0,0,0,0,0,0,0,0,1.0235,1.0226,1.0144,1.0141,1.0137,1.0075,1.0095,1.0027,1.0045,1.0079,1.0045,1.0046,0.9995,0.9988,0.9971,0.9917,0.9913,0.9938,0.9936,0.9934,0.9933,0,0,0,0,0,0,0,1.024,1.023,1.0135,1.0143,1.0138,1.0129,1.0119,1.0082,1.0037,1.0076,1.0073,1.0064,0.9993,0.9975,0.9969,0.9912,0.9938,0.9935,0.9932,0.9931,0.9831,0.983,0,0,0,0,0,0,1.025,1.0234,1.0138,1.0132,1.0188,1.0126,1.0116,1.0095,1.0037,1.0028,1.0064,1.0062,0.9982,0.9974,0.9966,0.9929,0.9934,0.993,0.9928,0.9831,0.9831,0.983,0,0,0,0,0,0,1.0253,1.0242,1.0141,1.0182,1.0169,1.0124,1.01,1.0093,1.0075,1.0028,1.0019,1.0054,0.9981,0.9971,0.9933,0.9925,0.9929,0.9925,0.9831,0.9831,0.983,0.9855,0,0,0,0,0,0,1.0257,1.0243,1.0232,1.0182,1.0167,1.011,1.01,1.0091,1.0069,1.0066,1.0016,1.0008,0.9981,0.9939,0.9929,0.992,0.9922,0.9832,0.9831,0.9831,0.9854,0.9855,0.9855,0,0,0,0,0,1.0262,1.0242,1.0232,1.022,1.0152,1.011,1.0101,1.007,1.0068,1.0057,1.0026,1.001,0.9928,0.9935,0.9924,0.9913,0.9832,0.9831,0.9831,0.9854,0.9855,0.9855,0,0,0,0,0,0,1.029,1.0234,1.0223,1.0186,1.0153,1.0104,1.0088,1.0072,1.0038,1.0037,1.0001,0.999,0.9955,0.993,0.994,0.9883,0.9879,0.9876,0.99,0.9901,0.9901,0.9908,0.9919,0,0,0,0,0,1.0293,1.0263,1.0216,1.0188,1.0173,1.0134,1.0114,1.0093,1.0057,1.0043,1.001,0.9975,0.9941,0.992,0.9886,0.9851,0.9839,0.9838,0.9839,0.9839,0.9837,0.9817,0.9816,0.9827,0.9827,0.9827,0,0,1.0297,1.0263,1.0246,1.0193,1.0165,1.0136,1.0122,1.0091,1.0068,1.0038,1.0,0.9975,0.9933,0.9897,0.9879,0.9875,0.9831,0.9838,0.9839,0.9836,0.9816,0.9815,0.9814,0.9827,0.9827,0.9827,0,0,1.0289,1.026,1.0234,1.0207,1.0165,1.0139,1.0133,1.0086,1.0068,1.003,1.0007,0.9979,0.9922,0.9894,0.9872,0.9854,0.9838,0.9844,0.9847,0.9828,0.9827,0.9826,0.982,0.9818,0.9842,0.9842,0.9842,0,1.0299,1.0253,1.0223,1.0193,1.017,1.0143,1.0116,1.0091,1.004,1.0025,1.0022,0.995,0.992,0.9876,0.9872,0.9856,0.9847,0.9849,0.983,0.9828,0.9827,0.982,0.9818,0.9843,0.9843,0.9843,0.9843,0,1.0268,1.0237,1.0221,1.0173,1.0149,1.0121,1.0086,1.0065,1.0047,1.0021,0.9983,0.9946,0.9905,0.9893,0.9875,0.9847,0.9846,0.9837,0.9832,0.9827,0.9821,0.9818,0.9845,0.9844,0.9844,0.9844,0,0,1.0274,1.0211,1.0206,1.0184,1.0136,1.0112,1.0082,1.0043,1.0026,0.9992,0.9966,0.9919,0.991,0.9885,0.9864,0.9847,0.9836,0.984,0.9838,0.984,0.9802,0.9809,0.9807,0.9825,0.9824,0.9824,0.9806,0,1.026,1.0207,1.0179,1.0138,1.0109,1.0083,1.0057,1.0025,1.0001,0.9972,0.9945,0.9912,0.9903,0.9888,0.9871,0.9841,0.9827,0.9842,0.98,0.9799,0.9811,0.9803,0.981,0.9795,0.9803,0.9803,0.9802,0,1.0235,1.0203,1.0159,1.0115,1.0102,1.008,1.0041,1.0015,0.9978,0.9961,0.9934,0.9913,0.9881,0.9879,0.9834,0.9844,0.9826,0.9809,0.9807,0.9802,0.98,0.9797,0.979,0.9788,0.9798,0.9798,0.9798,0,1.0244,1.019,1.0156,1.0139,1.0087,1.0072,1.0049,1.0013,0.9991,0.9957,0.9943,0.9906,0.9886,0.9857,0.9827,0.9828,0.9785,0.978,0.977,0.977,0.9761,0.9762,0.975,0.975,0.975,0.975,0.975,0,1.0231,1.0205,1.016,1.0139,1.011,1.0078,1.0049,1.0025,0.9992,0.9966,0.9942,0.9918,0.9879,0.985,0.9826,0.9792,0.9783,0.9769,0.9763,0.9771,0.9773,0.9757,0.9757,0.9749,0.975,0.975,0.975,0,1.0235,1.0204,1.0166,1.0121,1.0109,1.0089,1.005,1.0029,1.0004,0.9971,0.9962,0.9922,0.9887,0.9854,0.9807,0.979,0.9757,0.9749,0.9769,0.9766,0.9757,0.9758,0.9735,0.973,0.9734,0.9734,0.9734,0,1.0228,1.0208,1.0161,1.0142,1.012,1.009,1.0068,1.0036,1.0014,0.9971,0.9955,0.9919,0.9887,0.9832,0.9799,0.9763,0.9754,0.9748,0.9748,0.9757,0.9753,0.9755,0.9752,0.9748,0.9749,0.9749,0.9749,0,1.0219,1.0205,1.0175,1.0139,1.0114,1.0084,1.0053,1.0039,1.0001,0.9978,0.9942,0.9918,0.9871,0.9834,0.9795,0.9771,0.9753,0.9749,0.9745,0.9753,0.9765,0.9758,0.977,0.975,0.975,0.9749,0.9749,0.9749,1.0217,1.0198,1.0162,1.0129,1.0103,1.0075,1.0054,1.0026,0.9996,0.9956,0.9938,0.9902,0.9866,0.9811,0.9788,0.9758,0.9755,0.9748,0.9747,0.9745,0.9747,0.9771,0.9751,0.9751,0.9751,0.9751,0.9751,0,1.0207,1.0182,1.0153,1.0111,1.0085,1.0072,1.0038,1.0017,0.9986,0.9954,0.9924,0.9883,0.9848,0.9813,0.9775,0.9759,0.975,0.975,0.9751,0.9746,0.9753,0.976,0.9758,0.9758,0.9758,0.9758,0.9758,0.9758,1.0198,1.0165,1.0147,1.0101,1.0077,1.0042,1.0023,0.9997,0.9972,0.9927,0.9899,0.9876,0.9842,0.9803,0.977,0.976,0.9748,0.975,0.9738,0.9745,0.9745,0.9745,0.9751,0.9748,0.9748,0.9733,0.9733,0.9733]}]]